Time,TemperatureF,DewpointF,PressureIn,WindDirection,WindDirectionDegrees,WindSpeedMPH,WindSpeedGustMPH,Humidity,HourlyPrecipIn,Conditions,Clouds,dailyrainin,SoftwareType,DateUTC
2013-04-11 00:00:00,54.6,50.2,29.94,WSW,251,3.0,3.0,85,0.00,,,0.00,Wunderground v.1.15,2013-04-11 07:00:00,
2013-04-11 00:05:00,54.8,50.4,29.94,WSW,240,3.0,3.0,85,0.00,,,0.00,Wunderground v.1.15,2013-04-11 07:05:00,
2013-04-11 00:10:00,55.0,50.3,29.94,SW,223,3.0,3.0,84,0.00,,,0.00,Wunderground v.1.15,2013-04-11 07:10:00,
2013-04-11 00:15:00,55.0,50.3,29.94,WSW,246,3.0,3.0,84,0.00,,,0.00,Wunderground v.1.15,2013-04-11 07:15:00,
2013-04-11 00:20:00,55.0,50.3,29.94,SW,224,2.0,2.0,84,0.00,,,0.00,Wunderground v.1.15,2013-04-11 07:20:00,
2013-04-11 00:25:00,55.0,50.3,29.94,SSW,212,2.0,2.0,84,0.00,,,0.00,Wunderground v.1.15,2013-04-11 07:25:00,
2013-04-11 00:30:00,55.2,50.4,29.94,WSW,257,2.0,2.0,84,0.00,,,0.00,Wunderground v.1.15,2013-04-11 07:30:00,
2013-04-11 00:40:00,55.8,50.4,29.93,SSW,200,2.0,3.0,82,0.00,,,0.00,Wunderground v.1.15,2013-04-11 07:40:00,
2013-04-11 00:45:00,55.9,50.2,29.93,SE,137,3.0,4.0,81,0.00,,,0.00,Wunderground v.1.15,2013-04-11 07:45:00,
2013-04-11 00:55:00,55.2,49.8,29.94,WSW,257,4.0,4.0,82,0.00,,,0.00,Wunderground v.1.15,2013-04-11 07:55:00,
2013-04-11 01:00:00,54.9,49.8,29.93,SSW,196,3.0,3.0,83,0.00,,,0.00,Wunderground v.1.15,2013-04-11 08:00:00,
2013-04-11 01:05:00,54.5,49.8,29.93,SSW,207,2.0,3.0,84,0.00,,,0.00,Wunderground v.1.15,2013-04-11 08:05:00,
2013-04-11 01:15:00,54.9,49.8,29.92,SW,226,2.0,3.0,83,0.00,,,0.00,Wunderground v.1.15,2013-04-11 08:15:00,
2013-04-11 01:20:00,55.0,49.6,29.93,WSW,247,3.0,3.0,82,0.00,,,0.00,Wunderground v.1.15,2013-04-11 08:20:00,
2013-04-11 01:25:00,55.0,49.6,29.94,West,271,1.0,3.0,82,0.00,,,0.00,Wunderground v.1.15,2013-04-11 08:25:00,
2013-04-11 01:30:00,54.9,49.5,29.94,West,270,0.0,0.0,82,0.00,,,0.00,Wunderground v.1.15,2013-04-11 08:30:00,
2013-04-11 01:35:00,54.9,49.5,29.93,SW,217,1.0,2.0,82,0.00,,,0.00,Wunderground v.1.15,2013-04-11 08:35:00,
2013-04-11 01:40:00,54.8,49.7,29.93,SW,228,1.0,4.0,83,0.00,,,0.00,Wunderground v.1.15,2013-04-11 08:40:00,
2013-04-11 01:50:00,54.9,49.5,29.93,SW,231,3.0,4.0,82,0.00,,,0.00,Wunderground v.1.15,2013-04-11 08:50:00,
2013-04-11 01:55:00,54.9,49.5,29.93,SSW,210,3.0,4.0,82,0.00,,,0.00,Wunderground v.1.15,2013-04-11 08:55:00,
2013-04-11 02:00:00,54.9,49.5,29.92,SW,228,3.0,4.0,82,0.00,,,0.00,Wunderground v.1.15,2013-04-11 09:00:00,
2013-04-11 02:05:00,54.9,49.5,29.91,SW,226,5.0,5.0,82,0.00,,,0.00,Wunderground v.1.15,2013-04-11 09:05:00,
2013-04-11 02:10:00,54.9,49.2,29.92,SSW,200,6.0,6.0,81,0.00,,,0.00,Wunderground v.1.15,2013-04-11 09:10:00,
2013-04-11 02:15:00,54.7,49.3,29.92,West,259,6.0,6.0,82,0.00,,,0.00,Wunderground v.1.15,2013-04-11 09:15:00,
2013-04-11 02:25:00,54.0,49.3,29.92,South,180,6.0,9.0,84,0.00,,,0.00,Wunderground v.1.15,2013-04-11 09:25:00,
2013-04-11 02:30:00,53.7,49.3,29.91,SSW,200,6.0,6.0,85,0.00,,,0.00,Wunderground v.1.15,2013-04-11 09:30:00,
2013-04-11 02:35:00,53.4,49.3,29.92,WSW,251,5.0,6.0,86,0.00,,,0.00,Wunderground v.1.15,2013-04-11 09:35:00,
2013-04-11 02:45:00,53.0,48.9,29.92,WSW,250,3.0,9.0,86,0.00,,,0.00,Wunderground v.1.15,2013-04-11 09:45:00,
2013-04-11 02:50:00,52.9,49.1,29.92,WSW,247,2.0,2.0,87,0.00,,,0.00,Wunderground v.1.15,2013-04-11 09:50:00,
2013-04-11 03:00:00,52.9,49.1,29.91,South,186,3.0,3.0,87,0.00,,,0.00,Wunderground v.1.15,2013-04-11 10:00:00,
2013-04-11 03:10:00,52.8,49.0,29.91,SSE,150,3.0,4.0,87,0.00,,,0.00,Wunderground v.1.15,2013-04-11 10:10:00,
2013-04-11 03:15:00,52.9,49.1,29.91,SE,141,4.0,4.0,87,0.00,,,0.00,Wunderground v.1.15,2013-04-11 10:15:00,
2013-04-11 03:20:00,53.2,49.1,29.91,SW,236,4.0,4.0,86,0.00,,,0.00,Wunderground v.1.15,2013-04-11 10:20:00,
2013-04-11 03:25:00,53.7,49.0,29.91,SW,214,4.0,4.0,84,0.00,,,0.00,Wunderground v.1.15,2013-04-11 10:25:00,
2013-04-11 03:30:00,53.9,48.9,29.91,South,177,4.0,4.0,83,0.00,,,0.00,Wunderground v.1.15,2013-04-11 10:30:00,
2013-04-11 03:40:00,54.0,48.6,29.91,SW,219,3.0,4.0,82,0.00,,,0.00,Wunderground v.1.15,2013-04-11 10:40:00,
2013-04-11 03:45:00,53.9,48.9,29.91,SSW,205,4.0,4.0,83,0.00,,,0.00,Wunderground v.1.15,2013-04-11 10:45:00,
2013-04-11 03:50:00,53.7,48.7,29.91,SW,236,4.0,4.0,83,0.00,,,0.00,Wunderground v.1.15,2013-04-11 10:50:00,
2013-04-11 03:55:00,53.5,48.8,29.91,SW,232,3.0,4.0,84,0.00,,,0.00,Wunderground v.1.15,2013-04-11 10:55:00,
2013-04-11 04:00:00,53.4,48.4,29.91,SSW,212,3.0,3.0,83,0.00,,,0.00,Wunderground v.1.15,2013-04-11 11:00:00,
2013-04-11 04:10:00,53.3,48.3,29.91,SW,217,2.0,4.0,83,0.00,,,0.00,Wunderground v.1.15,2013-04-11 11:10:00,
2013-04-11 04:15:00,53.0,48.3,29.92,South,191,3.0,4.0,84,0.00,,,0.00,Wunderground v.1.15,2013-04-11 11:15:00,
2013-04-11 04:25:00,52.1,48.3,29.91,SSW,207,4.0,6.0,87,0.00,,,0.00,Wunderground v.1.15,2013-04-11 11:25:00,
2013-04-11 04:30:00,51.8,48.4,29.91,WSW,243,5.0,6.0,88,0.00,,,0.00,Wunderground v.1.15,2013-04-11 11:30:00,
2013-04-11 04:40:00,51.5,48.4,29.92,SW,214,4.0,5.0,89,0.00,,,0.00,Wunderground v.1.15,2013-04-11 11:40:00,
2013-04-11 04:45:00,51.2,48.1,29.92,SSW,210,4.0,5.0,89,0.00,,,0.00,Wunderground v.1.15,2013-04-11 11:45:00,
2013-04-11 04:55:00,50.7,48.2,29.92,SW,229,4.0,4.0,91,0.00,,,0.00,Wunderground v.1.15,2013-04-11 11:55:00,
2013-04-11 05:00:00,50.5,48.0,29.92,SW,217,4.0,4.0,91,0.00,,,0.00,Wunderground v.1.15,2013-04-11 12:00:00,
2013-04-11 05:05:00,50.4,47.9,29.92,SW,229,4.0,4.0,91,0.00,,,0.00,Wunderground v.1.15,2013-04-11 12:05:00,
2013-04-11 05:15:00,50.1,47.9,29.91,SE,136,3.0,7.0,92,0.00,,,0.00,Wunderground v.1.15,2013-04-11 12:15:00,
2013-04-11 05:20:00,50.0,47.8,29.91,SSE,162,3.0,5.0,92,0.00,,,0.00,Wunderground v.1.15,2013-04-11 12:20:00,
2013-04-11 05:25:00,49.9,47.7,29.92,SSW,206,3.0,5.0,92,0.00,,,0.00,Wunderground v.1.15,2013-04-11 12:25:00,
2013-04-11 05:35:00,49.7,47.5,29.91,SSW,207,3.0,3.0,92,0.00,,,0.00,Wunderground v.1.15,2013-04-11 12:35:00,
2013-04-11 05:40:00,49.6,47.4,29.91,South,180,2.0,5.0,92,0.00,,,0.00,Wunderground v.1.15,2013-04-11 12:40:00,
2013-04-11 05:45:00,49.5,47.6,29.91,WSW,244,3.0,5.0,93,0.00,,,0.00,Wunderground v.1.15,2013-04-11 12:45:00,
2013-04-11 05:55:00,49.3,47.4,29.91,WSW,257,3.0,5.0,93,0.00,,,0.00,Wunderground v.1.15,2013-04-11 12:55:00,
2013-04-11 06:00:00,49.2,47.3,29.91,SSW,199,3.0,3.0,93,0.00,,,0.00,Wunderground v.1.15,2013-04-11 13:00:00,
2013-04-11 06:05:00,49.1,47.2,29.91,SSW,202,3.0,3.0,93,0.00,,,0.00,Wunderground v.1.15,2013-04-11 13:05:00,
2013-04-11 06:10:00,49.0,47.1,29.91,SSW,210,3.0,5.0,93,0.00,,,0.00,Wunderground v.1.15,2013-04-11 13:10:00,
2013-04-11 06:15:00,48.9,47.0,29.91,South,169,2.0,5.0,93,0.00,,,0.00,Wunderground v.1.15,2013-04-11 13:15:00,
2013-04-11 06:25:00,48.8,46.9,29.91,South,176,2.0,5.0,93,0.00,,,0.00,Wunderground v.1.15,2013-04-11 13:25:00,
2013-04-11 06:30:00,48.7,46.8,29.91,SW,219,2.0,2.0,93,0.00,,,0.00,Wunderground v.1.15,2013-04-11 13:30:00,
2013-04-11 06:35:00,48.7,46.8,29.91,SW,231,2.0,2.0,93,0.00,,,0.00,Wunderground v.1.15,2013-04-11 13:35:00,
2013-04-11 06:45:00,48.7,46.8,29.91,SSW,213,2.0,3.0,93,0.00,,,0.00,Wunderground v.1.15,2013-04-11 13:45:00,
2013-04-11 06:50:00,48.7,46.8,29.91,SSW,198,2.0,2.0,93,0.00,,,0.00,Wunderground v.1.15,2013-04-11 13:50:00,
2013-04-11 06:55:00,48.7,46.8,29.91,SSW,212,2.0,2.0,93,0.00,,,0.00,Wunderground v.1.15,2013-04-11 13:55:00,
2013-04-11 07:00:00,48.7,46.8,29.91,SSW,206,2.0,2.0,93,0.00,,,0.00,Wunderground v.1.15,2013-04-11 14:00:00,
2013-04-11 07:05:00,48.7,46.8,29.91,WSW,244,1.0,2.0,93,0.00,,,0.00,Wunderground v.1.15,2013-04-11 14:05:00,
2013-04-11 07:10:00,48.7,46.8,29.91,SW,220,0.0,1.0,93,0.00,,,0.00,Wunderground v.1.15,2013-04-11 14:10:00,
2013-04-11 07:20:00,48.8,46.9,29.92,West,261,1.0,1.0,93,0.00,,,0.00,Wunderground v.1.15,2013-04-11 14:20:00,
2013-04-11 07:25:00,48.8,46.9,29.92,WNW,282,1.0,1.0,93,0.00,,,0.00,Wunderground v.1.15,2013-04-11 14:25:00,
2013-04-11 07:30:00,48.9,47.0,29.93,SSW,207,1.0,1.0,93,0.00,,,0.00,Wunderground v.1.15,2013-04-11 14:30:00,
2013-04-11 07:40:00,49.2,47.3,29.92,SSW,210,2.0,2.0,93,0.00,,,0.00,Wunderground v.1.15,2013-04-11 14:40:00,
2013-04-11 07:45:00,49.4,47.2,29.92,SW,236,2.0,2.0,92,0.00,,,0.00,Wunderground v.1.15,2013-04-11 14:45:00,
2013-04-11 07:50:00,49.7,47.5,29.92,SW,225,2.0,2.0,92,0.00,,,0.00,Wunderground v.1.15,2013-04-11 14:50:00,
2013-04-11 07:55:00,49.9,47.4,29.92,West,266,2.0,2.0,91,0.00,,,0.00,Wunderground v.1.15,2013-04-11 14:55:00,
2013-04-11 08:00:00,50.0,47.5,29.92,SW,229,2.0,2.0,91,0.00,,,0.00,Wunderground v.1.15,2013-04-11 15:00:00,
2013-04-11 08:05:00,50.2,47.7,29.92,SW,224,2.0,3.0,91,0.00,,,0.00,Wunderground v.1.15,2013-04-11 15:05:00,
2013-04-11 08:10:00,50.3,47.5,29.92,SW,221,2.0,2.0,90,0.00,,,0.00,Wunderground v.1.15,2013-04-11 15:10:00,
2013-04-11 08:15:00,50.4,47.6,29.92,SW,224,2.0,2.0,90,0.00,,,0.00,Wunderground v.1.15,2013-04-11 15:15:00,
2013-04-11 08:25:00,50.8,47.7,29.92,WSW,241,2.0,4.0,89,0.00,,,0.00,Wunderground v.1.15,2013-04-11 15:25:00,
2013-04-11 08:30:00,51.1,48.0,29.92,WSW,244,3.0,3.0,89,0.00,,,0.00,Wunderground v.1.15,2013-04-11 15:30:00,
2013-04-11 08:35:00,51.4,48.3,29.92,WSW,244,2.0,5.0,89,0.00,,,0.00,Wunderground v.1.15,2013-04-11 15:35:00,
2013-04-11 08:40:00,51.6,47.9,29.92,SW,217,3.0,3.0,87,0.00,,,0.00,Wunderground v.1.15,2013-04-11 15:40:00,
2013-04-11 08:50:00,52.0,47.9,29.92,WNW,285,2.0,5.0,86,0.00,,,0.00,Wunderground v.1.15,2013-04-11 15:50:00,
2013-04-11 08:55:00,52.5,48.1,29.92,West,276,3.0,5.0,85,0.00,,,0.00,Wunderground v.1.15,2013-04-11 15:55:00,
2013-04-11 09:05:00,53.8,48.8,29.91,WSW,243,2.0,3.0,83,0.00,,,0.00,Wunderground v.1.15,2013-04-11 16:05:00,
2013-04-11 09:10:00,53.8,48.8,29.91,West,278,2.0,2.0,83,0.00,,,0.00,Wunderground v.1.15,2013-04-11 16:10:00,
2013-04-11 09:15:00,53.8,48.4,29.91,West,266,3.0,3.0,82,0.00,,,0.00,Wunderground v.1.15,2013-04-11 16:15:00,
2013-04-11 09:25:00,54.2,48.8,29.91,West,277,3.0,3.0,82,0.00,,,0.00,Wunderground v.1.15,2013-04-11 16:25:00,
2013-04-11 09:30:00,54.4,48.7,29.91,SSW,210,2.0,2.0,81,0.00,,,0.00,Wunderground v.1.15,2013-04-11 16:30:00,
2013-04-11 09:35:00,55.4,49.7,29.91,SSW,193,2.0,2.0,81,0.00,,,0.00,Wunderground v.1.15,2013-04-11 16:35:00,
2013-04-11 09:40:00,55.7,48.6,29.91,SSW,210,2.0,2.0,77,0.00,,,0.00,Wunderground v.1.15,2013-04-11 16:40:00,
2013-04-11 09:45:00,55.4,49.0,29.91,SSW,209,3.0,3.0,79,0.00,,,0.00,Wunderground v.1.15,2013-04-11 16:45:00,
2013-04-11 09:55:00,57.0,49.5,29.91,WSW,240,1.0,2.0,76,0.00,,,0.00,Wunderground v.1.15,2013-04-11 16:55:00,
2013-04-11 10:00:00,57.1,49.2,29.91,West,278,2.0,2.0,75,0.00,,,0.00,Wunderground v.1.15,2013-04-11 17:00:00,
2013-04-11 10:05:00,57.0,49.5,29.91,WSW,257,3.0,7.0,76,0.00,,,0.00,Wunderground v.1.15,2013-04-11 17:05:00,
2013-04-11 10:10:00,57.5,49.3,29.91,WSW,257,3.0,3.0,74,0.00,,,0.00,Wunderground v.1.15,2013-04-11 17:10:00,
2013-04-11 10:20:00,58.3,49.3,29.91,WSW,246,3.0,3.0,72,0.00,,,0.00,Wunderground v.1.15,2013-04-11 17:20:00,
2013-04-11 10:25:00,58.5,49.1,29.91,SW,226,3.0,3.0,71,0.00,,,0.00,Wunderground v.1.15,2013-04-11 17:25:00,
2013-04-11 10:30:00,59.0,49.6,29.91,West,262,2.0,2.0,71,0.00,,,0.00,Wunderground v.1.15,2013-04-11 17:30:00,
2013-04-11 10:40:00,59.0,49.6,29.91,WSW,252,3.0,3.0,71,0.00,,,0.00,Wunderground v.1.15,2013-04-11 17:40:00,
2013-04-11 10:45:00,59.4,50.7,29.91,WSW,239,4.0,4.0,73,0.00,,,0.00,Wunderground v.1.15,2013-04-11 17:45:00,
2013-04-11 10:50:00,59.8,50.4,29.91,WNW,282,4.0,4.0,71,0.00,,,0.00,Wunderground v.1.15,2013-04-11 17:50:00,
2013-04-11 10:55:00,60.2,50.0,29.91,SE,137,4.0,4.0,69,0.00,,,0.00,Wunderground v.1.15,2013-04-11 17:55:00,
2013-04-11 11:00:00,60.3,50.1,29.90,SW,233,4.0,4.0,69,0.00,,,0.00,Wunderground v.1.15,2013-04-11 18:00:00,
2013-04-11 11:10:00,60.5,50.7,29.90,SSE,160,3.0,7.0,70,0.00,,,0.00,Wunderground v.1.15,2013-04-11 18:10:00,
2013-04-11 11:15:00,60.8,50.6,29.90,East,98,3.0,7.0,69,0.00,,,0.00,Wunderground v.1.15,2013-04-11 18:15:00,
2013-04-11 11:20:00,61.5,50.0,29.90,WSW,240,3.0,4.0,66,0.00,,,0.00,Wunderground v.1.15,2013-04-11 18:20:00,
2013-04-11 11:25:00,61.7,50.2,29.90,SSW,213,3.0,7.0,66,0.00,,,0.00,Wunderground v.1.15,2013-04-11 18:25:00,
2013-04-11 11:30:00,61.9,49.6,29.90,West,275,4.0,4.0,64,0.00,,,0.00,Wunderground v.1.15,2013-04-11 18:30:00,
2013-04-11 11:40:00,63.2,50.0,29.90,West,279,2.0,2.0,62,0.00,,,0.00,Wunderground v.1.15,2013-04-11 18:40:00,
2013-04-11 11:45:00,63.4,48.8,29.90,WSW,239,2.0,3.0,59,0.00,,,0.00,Wunderground v.1.15,2013-04-11 18:45:00,
2013-04-11 11:50:00,63.7,49.5,29.89,WNW,282,4.0,4.0,60,0.00,,,0.00,Wunderground v.1.15,2013-04-11 18:50:00,
2013-04-11 11:55:00,64.1,49.5,29.89,SW,225,3.0,4.0,59,0.00,,,0.00,Wunderground v.1.15,2013-04-11 18:55:00,
2013-04-11 12:05:00,64.7,49.6,29.89,West,272,3.0,3.0,58,0.00,,,0.00,Wunderground v.1.15,2013-04-11 19:05:00,
2013-04-11 12:15:00,65.3,49.7,29.89,West,262,3.0,5.0,57,0.00,,,0.00,Wunderground v.1.15,2013-04-11 19:15:00,
2013-04-11 12:20:00,65.1,49.0,29.88,SSW,193,4.0,4.0,56,0.00,,,0.00,Wunderground v.1.15,2013-04-11 19:20:00,
2013-04-11 12:25:00,65.5,49.9,29.87,WNW,285,3.0,4.0,57,0.00,,,0.00,Wunderground v.1.15,2013-04-11 19:25:00,
2013-04-11 12:30:00,66.4,49.7,29.87,SW,233,3.0,3.0,55,0.00,,,0.00,Wunderground v.1.15,2013-04-11 19:30:00,
2013-04-11 12:40:00,66.7,50.0,29.86,WNW,291,4.0,4.0,55,0.00,,,0.00,Wunderground v.1.15,2013-04-11 19:40:00,
2013-04-11 12:45:00,66.8,50.1,29.86,SW,221,4.0,8.0,55,0.00,,,0.00,Wunderground v.1.15,2013-04-11 19:45:00,
2013-04-11 12:50:00,67.1,49.4,29.86,SSW,212,4.0,5.0,53,0.00,,,0.00,Wunderground v.1.15,2013-04-11 19:50:00,
2013-04-11 12:55:00,67.7,49.9,29.85,WSW,252,4.0,7.0,53,0.00,,,0.00,Wunderground v.1.15,2013-04-11 19:55:00,
2013-04-11 13:00:00,68.0,49.2,29.85,West,262,4.0,4.0,51,0.00,,,0.00,Wunderground v.1.15,2013-04-11 20:00:00,
2013-04-11 13:10:00,68.6,49.2,29.85,WSW,250,4.0,4.0,50,0.00,,,0.00,Wunderground v.1.15,2013-04-11 20:10:00,
2013-04-11 13:15:00,69.0,49.6,29.84,NW,326,4.0,4.0,50,0.00,,,0.00,Wunderground v.1.15,2013-04-11 20:15:00,
2013-04-11 13:20:00,68.9,49.5,29.84,SW,221,3.0,5.0,50,0.00,,,0.00,Wunderground v.1.15,2013-04-11 20:20:00,
2013-04-11 13:25:00,69.6,49.6,29.83,SSW,212,3.0,5.0,49,0.00,,,0.00,Wunderground v.1.15,2013-04-11 20:25:00,
2013-04-11 13:30:00,69.9,49.9,29.83,WSW,240,2.0,2.0,49,0.00,,,0.00,Wunderground v.1.15,2013-04-11 20:30:00,
2013-04-11 13:35:00,70.6,50.0,29.83,WSW,242,2.0,2.0,48,0.00,,,0.00,Wunderground v.1.15,2013-04-11 20:35:00,
2013-04-11 13:45:00,70.6,50.0,29.83,WSW,247,2.0,4.0,48,0.00,,,0.00,Wunderground v.1.15,2013-04-11 20:45:00,
2013-04-11 13:55:00,70.2,49.0,29.82,WSW,246,3.0,4.0,47,0.00,,,0.00,Wunderground v.1.15,2013-04-11 20:55:00,
2013-04-11 14:00:00,70.9,49.1,29.82,WNW,286,2.0,2.0,46,0.00,,,0.00,Wunderground v.1.15,2013-04-11 21:00:00,
2013-04-11 14:05:00,71.0,48.6,29.82,WSW,245,2.0,5.0,45,0.00,,,0.00,Wunderground v.1.15,2013-04-11 21:05:00,
2013-04-11 14:10:00,71.1,48.7,29.81,SW,214,3.0,3.0,45,0.00,,,0.00,Wunderground v.1.15,2013-04-11 21:10:00,
2013-04-11 14:20:00,71.4,48.9,29.81,West,266,3.0,3.0,45,0.00,,,0.00,Wunderground v.1.15,2013-04-11 21:20:00,
2013-04-11 14:25:00,71.9,48.8,29.81,WSW,250,2.0,4.0,44,0.00,,,0.00,Wunderground v.1.15,2013-04-11 21:25:00,
2013-04-11 14:30:00,71.4,48.3,29.81,West,272,2.0,4.0,44,0.00,,,0.00,Wunderground v.1.15,2013-04-11 21:30:00,
2013-04-11 14:35:00,71.4,48.9,29.81,North,349,2.0,4.0,45,0.00,,,0.00,Wunderground v.1.15,2013-04-11 21:35:00,
2013-04-11 14:45:00,72.5,49.3,29.80,SW,233,1.0,1.0,44,0.00,,,0.00,Wunderground v.1.15,2013-04-11 21:45:00,
2013-04-11 14:50:00,73.1,49.3,29.80,West,262,1.0,4.0,43,0.00,,,0.00,Wunderground v.1.15,2013-04-11 21:50:00,
2013-04-11 14:55:00,73.1,49.9,29.79,West,264,1.0,4.0,44,0.00,,,0.00,Wunderground v.1.15,2013-04-11 21:55:00,
2013-04-11 15:00:00,73.6,49.7,29.79,SW,224,2.0,2.0,43,0.00,,,0.00,Wunderground v.1.15,2013-04-11 22:00:00,
2013-04-11 15:05:00,73.4,51.4,29.79,SSW,212,4.0,6.0,46,0.00,,,0.00,Wunderground v.1.15,2013-04-11 22:05:00,
2013-04-11 15:10:00,72.0,50.7,29.79,WNW,282,5.0,9.0,47,0.00,,,0.00,Wunderground v.1.15,2013-04-11 22:10:00,
2013-04-11 15:20:00,70.4,50.3,29.79,WSW,257,6.0,6.0,49,0.00,,,0.00,Wunderground v.1.15,2013-04-11 22:20:00,
2013-04-11 15:30:00,69.6,50.1,29.79,West,273,6.0,6.0,50,0.00,,,0.00,Wunderground v.1.15,2013-04-11 22:30:00,
2013-04-11 15:35:00,69.3,50.4,29.78,WSW,258,6.0,6.0,51,0.00,,,0.00,Wunderground v.1.15,2013-04-11 22:35:00,
2013-04-11 15:40:00,69.2,50.8,29.78,WSW,255,6.0,6.0,52,0.00,,,0.00,Wunderground v.1.15,2013-04-11 22:40:00,
2013-04-11 15:45:00,69.5,50.6,29.78,WSW,240,6.0,6.0,51,0.00,,,0.00,Wunderground v.1.15,2013-04-11 22:45:00,
2013-04-11 15:55:00,69.9,50.4,29.78,WSW,257,4.0,5.0,50,0.00,,,0.00,Wunderground v.1.15,2013-04-11 22:55:00,
2013-04-11 16:00:00,69.9,49.9,29.78,WNW,301,4.0,4.0,49,0.00,,,0.00,Wunderground v.1.15,2013-04-11 23:00:00,
2013-04-11 16:10:00,69.7,50.2,29.77,WSW,243,5.0,5.0,50,0.00,,,0.00,Wunderground v.1.15,2013-04-11 23:10:00,
2013-04-11 16:15:00,69.7,49.7,29.77,West,272,5.0,5.0,49,0.00,,,0.00,Wunderground v.1.15,2013-04-11 23:15:00,
2013-04-11 16:20:00,69.9,49.9,29.76,WSW,255,5.0,6.0,49,0.00,,,0.00,Wunderground v.1.15,2013-04-11 23:20:00,
2013-04-11 16:25:00,70.2,49.6,29.76,West,269,4.0,6.0,48,0.00,,,0.00,Wunderground v.1.15,2013-04-11 23:25:00,
2013-04-11 16:30:00,70.5,48.1,29.76,SSW,209,3.0,3.0,45,0.00,,,0.00,Wunderground v.1.15,2013-04-11 23:30:00,
2013-04-11 16:40:00,71.2,49.9,29.75,SSE,153,4.0,4.0,47,0.00,,,0.00,Wunderground v.1.15,2013-04-11 23:40:00,
2013-04-11 16:45:00,71.1,49.8,29.75,SW,233,5.0,9.0,47,0.00,,,0.00,Wunderground v.1.15,2013-04-11 23:45:00,
2013-04-11 16:50:00,71.3,49.4,29.75,SSW,212,4.0,7.0,46,0.00,,,0.00,Wunderground v.1.15,2013-04-11 23:50:00,
2013-04-11 16:55:00,71.1,49.3,29.75,SSW,213,4.0,7.0,46,0.00,,,0.00,Wunderground v.1.15,2013-04-11 23:55:00,
2013-04-11 17:00:00,71.2,49.4,29.75,SSW,212,5.0,9.0,46,0.00,,,0.00,Wunderground v.1.15,2013-04-12 00:00:00,
2013-04-11 17:10:00,70.8,48.4,29.75,SSW,206,5.0,6.0,45,0.00,,,0.00,Wunderground v.1.15,2013-04-12 00:10:00,
2013-04-11 17:15:00,70.5,48.7,29.75,WSW,239,6.0,6.0,46,0.00,,,0.00,Wunderground v.1.15,2013-04-12 00:15:00,
2013-04-11 17:20:00,70.5,48.7,29.75,SSE,162,6.0,7.0,46,0.00,,,0.00,Wunderground v.1.15,2013-04-12 00:20:00,
2013-04-11 17:25:00,70.7,48.9,29.75,SSW,212,5.0,7.0,46,0.00,,,0.00,Wunderground v.1.15,2013-04-12 00:25:00,
2013-04-11 17:30:00,70.5,48.7,29.75,SSW,199,5.0,7.0,46,0.00,,,0.00,Wunderground v.1.15,2013-04-12 00:30:00,
2013-04-11 17:35:00,70.5,48.7,29.75,SSE,158,5.0,7.0,46,0.00,,,0.00,Wunderground v.1.15,2013-04-12 00:35:00,
2013-04-11 17:40:00,70.4,48.6,29.74,South,177,5.0,5.0,46,0.00,,,0.00,Wunderground v.1.15,2013-04-12 00:40:00,
2013-04-11 17:50:00,70.3,48.5,29.74,SSE,165,5.0,6.0,46,0.00,,,0.00,Wunderground v.1.15,2013-04-12 00:50:00,
2013-04-11 17:55:00,70.3,49.1,29.74,SSW,195,5.0,6.0,47,0.00,,,0.00,Wunderground v.1.15,2013-04-12 00:55:00,
2013-04-11 18:00:00,70.1,48.4,29.74,SW,224,5.0,5.0,46,0.00,,,0.00,Wunderground v.1.15,2013-04-12 01:00:00,
2013-04-11 18:10:00,70.2,48.4,29.75,SSW,206,4.0,4.0,46,0.00,,,0.00,Wunderground v.1.15,2013-04-12 01:10:00,
2013-04-11 18:15:00,70.2,48.4,29.75,South,176,3.0,4.0,46,0.00,,,0.00,Wunderground v.1.15,2013-04-12 01:15:00,
2013-04-11 18:20:00,69.9,48.7,29.75,SW,230,4.0,6.0,47,0.00,,,0.00,Wunderground v.1.15,2013-04-12 01:20:00,
2013-04-11 18:25:00,69.1,48.6,29.75,South,178,5.0,6.0,48,0.00,,,0.00,Wunderground v.1.15,2013-04-12 01:25:00,
2013-04-11 18:30:00,68.2,48.3,29.75,SSW,205,5.0,6.0,49,0.00,,,0.00,Wunderground v.1.15,2013-04-12 01:30:00,
2013-04-11 18:40:00,67.1,48.9,29.75,WSW,256,4.0,4.0,52,0.00,,,0.00,Wunderground v.1.15,2013-04-12 01:40:00,
2013-04-11 18:45:00,66.8,48.6,29.75,SW,217,3.0,4.0,52,0.00,,,0.00,Wunderground v.1.15,2013-04-12 01:45:00,
2013-04-11 18:50:00,65.9,48.3,29.74,SW,221,4.0,4.0,53,0.00,,,0.00,Wunderground v.1.15,2013-04-12 01:50:00,
2013-04-11 18:55:00,65.1,47.5,29.74,South,191,5.0,5.0,53,0.00,,,0.00,Wunderground v.1.15,2013-04-12 01:55:00,
2013-04-11 19:00:00,64.4,47.4,29.74,SSW,212,4.0,4.0,54,0.00,,,0.00,Wunderground v.1.15,2013-04-12 02:00:00,
2013-04-11 19:10:00,63.2,46.3,29.74,SW,234,4.0,6.0,54,0.00,,,0.00,Wunderground v.1.15,2013-04-12 02:10:00,
2013-04-11 19:15:00,62.5,46.1,29.74,SW,214,4.0,6.0,55,0.00,,,0.00,Wunderground v.1.15,2013-04-12 02:15:00,
2013-04-11 19:25:00,61.9,46.0,29.74,South,179,3.0,7.0,56,0.00,,,0.00,Wunderground v.1.15,2013-04-12 02:25:00,
2013-04-11 19:30:00,61.6,45.7,29.74,West,259,3.0,3.0,56,0.00,,,0.00,Wunderground v.1.15,2013-04-12 02:30:00,
2013-04-11 19:40:00,61.1,45.7,29.75,SW,223,1.0,2.0,57,0.00,,,0.00,Wunderground v.1.15,2013-04-12 02:40:00,
2013-04-11 19:45:00,60.9,45.6,29.75,WSW,239,1.0,2.0,57,0.00,,,0.00,Wunderground v.1.15,2013-04-12 02:45:00,
2013-04-11 19:50:00,60.6,45.7,29.75,WSW,244,0.0,0.0,58,0.00,,,0.00,Wunderground v.1.15,2013-04-12 02:50:00,
2013-04-11 20:00:00,60.0,45.6,29.75,WSW,244,0.0,0.0,59,0.00,,,0.00,Wunderground v.1.15,2013-04-12 03:00:00,
2013-04-11 20:05:00,59.6,45.7,29.75,WSW,244,0.0,0.0,60,0.00,,,0.00,Wunderground v.1.15,2013-04-12 03:05:00,
2013-04-11 20:10:00,59.3,45.4,29.75,WSW,244,0.0,0.0,60,0.00,,,0.00,Wunderground v.1.15,2013-04-12 03:10:00,
2013-04-11 20:15:00,59.3,45.4,29.75,WSW,244,0.0,0.0,60,0.00,,,0.00,Wunderground v.1.15,2013-04-12 03:15:00,
2013-04-11 20:25:00,59.1,44.8,29.75,SSW,210,1.0,1.0,59,0.00,,,0.00,Wunderground v.1.15,2013-04-12 03:25:00,
2013-04-11 20:30:00,59.1,44.8,29.75,WSW,237,1.0,1.0,59,0.00,,,0.00,Wunderground v.1.15,2013-04-12 03:30:00,
2013-04-11 20:35:00,59.0,45.1,29.75,WSW,252,1.0,1.0,60,0.00,,,0.00,Wunderground v.1.15,2013-04-12 03:35:00,
2013-04-11 20:40:00,58.8,45.4,29.75,SW,233,1.0,2.0,61,0.00,,,0.00,Wunderground v.1.15,2013-04-12 03:40:00,
2013-04-11 20:45:00,58.6,45.2,29.75,WSW,250,1.0,2.0,61,0.00,,,0.00,Wunderground v.1.15,2013-04-12 03:45:00,
2013-04-11 20:50:00,58.3,45.3,29.75,WSW,250,0.0,0.0,62,0.00,,,0.00,Wunderground v.1.15,2013-04-12 03:50:00,
2013-04-11 20:55:00,58.0,45.5,29.75,WSW,250,0.0,0.0,63,0.00,,,0.00,Wunderground v.1.15,2013-04-12 03:55:00,
2013-04-11 21:00:00,57.7,45.6,29.75,WSW,250,0.0,0.0,64,0.00,,,0.00,Wunderground v.1.15,2013-04-12 04:00:00,
2013-04-11 21:05:00,57.4,45.7,29.74,WSW,249,0.0,0.0,65,0.00,,,0.00,Wunderground v.1.15,2013-04-12 04:05:00,
2013-04-11 21:10:00,56.9,45.7,29.75,WSW,250,0.0,0.0,66,0.00,,,0.00,Wunderground v.1.15,2013-04-12 04:10:00,
2013-04-11 21:15:00,56.2,45.4,29.75,WSW,250,0.0,0.0,67,0.00,,,0.00,Wunderground v.1.15,2013-04-12 04:15:00,
2013-04-11 21:20:00,55.8,45.4,29.75,WSW,250,0.0,0.0,68,0.00,,,0.00,Wunderground v.1.15,2013-04-12 04:20:00,
2013-04-11 21:25:00,55.4,45.8,29.76,WSW,250,0.0,0.0,70,0.00,,,0.00,Wunderground v.1.15,2013-04-12 04:25:00,
2013-04-11 21:30:00,55.2,46.0,29.76,WSW,250,0.0,0.0,71,0.00,,,0.00,Wunderground v.1.15,2013-04-12 04:30:00,
2013-04-11 21:35:00,54.8,45.6,29.76,WSW,249,0.0,0.0,71,0.00,,,0.00,Wunderground v.1.15,2013-04-12 04:35:00,
2013-04-11 21:40:00,54.7,45.8,29.76,SSW,192,0.0,0.0,72,0.00,,,0.00,Wunderground v.1.15,2013-04-12 04:40:00,
2013-04-11 21:50:00,54.6,46.1,29.77,SSW,210,1.0,1.0,73,0.00,,,0.00,Wunderground v.1.15,2013-04-12 04:50:00,
2013-04-11 21:55:00,54.4,45.9,29.77,SSW,210,0.0,1.0,73,0.00,,,0.00,Wunderground v.1.15,2013-04-12 04:55:00,
2013-04-11 22:00:00,54.2,46.1,29.77,SSW,205,0.0,1.0,74,0.00,,,0.00,Wunderground v.1.15,2013-04-12 05:00:00,
2013-04-11 22:05:00,53.9,45.8,29.78,South,181,1.0,1.0,74,0.00,,,0.00,Wunderground v.1.15,2013-04-12 05:05:00,
2013-04-11 22:10:00,53.6,45.9,29.77,SSE,155,1.0,1.0,75,0.00,,,0.00,Wunderground v.1.15,2013-04-12 05:10:00,
2013-04-11 22:20:00,53.0,45.6,29.77,South,191,1.0,1.0,76,0.00,,,0.00,Wunderground v.1.15,2013-04-12 05:20:00,
2013-04-11 22:25:00,52.8,45.4,29.77,South,189,0.0,1.0,76,0.00,,,0.00,Wunderground v.1.15,2013-04-12 05:25:00,
2013-04-11 22:30:00,52.7,45.3,29.77,South,188,0.0,0.0,76,0.00,,,0.00,Wunderground v.1.15,2013-04-12 05:30:00,
2013-04-11 22:35:00,52.6,45.2,29.77,South,189,0.0,0.0,76,0.00,,,0.00,Wunderground v.1.15,2013-04-12 05:35:00,
2013-04-11 22:40:00,52.5,45.5,29.76,South,189,0.0,0.0,77,0.00,,,0.00,Wunderground v.1.15,2013-04-12 05:40:00,
2013-04-11 22:45:00,52.4,45.4,29.76,South,189,0.0,0.0,77,0.00,,,0.00,Wunderground v.1.15,2013-04-12 05:45:00,
2013-04-11 22:55:00,52.1,45.4,29.76,South,189,0.0,0.0,78,0.00,,,0.00,Wunderground v.1.15,2013-04-12 05:55:00,
2013-04-11 23:00:00,52.0,45.4,29.75,South,189,0.0,0.0,78,0.00,,,0.00,Wunderground v.1.15,2013-04-12 06:00:00,
2013-04-11 23:10:00,51.7,45.4,29.76,South,191,0.0,0.0,79,0.00,,,0.00,Wunderground v.1.15,2013-04-12 06:10:00,
2013-04-11 23:15:00,51.5,45.2,29.76,South,191,0.0,0.0,79,0.00,,,0.00,Wunderground v.1.15,2013-04-12 06:15:00,
2013-04-11 23:25:00,50.6,44.3,29.76,South,189,0.0,0.0,79,0.00,,,0.00,Wunderground v.1.15,2013-04-12 06:25:00,
2013-04-11 23:30:00,50.1,44.5,29.75,South,189,0.0,0.0,81,0.00,,,0.00,Wunderground v.1.15,2013-04-12 06:30:00,
2013-04-11 23:35:00,50.0,44.7,29.75,South,191,0.0,0.0,82,0.00,,,0.00,Wunderground v.1.15,2013-04-12 06:35:00,
2013-04-11 23:40:00,49.9,44.6,29.76,South,191,0.0,0.0,82,0.00,,,0.00,Wunderground v.1.15,2013-04-12 06:40:00,
2013-04-11 23:45:00,49.8,44.8,29.76,South,191,0.0,0.0,83,0.00,,,0.00,Wunderground v.1.15,2013-04-12 06:45:00,
2013-04-11 23:50:00,49.9,44.9,29.75,South,191,0.0,0.0,83,0.00,,,0.00,Wunderground v.1.15,2013-04-12 06:50:00,
2013-04-11 23:55:00,49.8,44.5,29.76,South,189,0.0,0.0,82,0.00,,,0.00,Wunderground v.1.15,2013-04-12 06:55:00,